Flag for U.S.A. Weather past 2 weeks in Acworth, Georgia, U.S.A.

Now
69 °F

Clear.


Feels Like: 69 °F
Forecast: 72 / 94 °F
Wind: No wind

Location: Cartersville Airport

Current Time: Aug 22, 2014 at 6:22:59 AM

Latest Report: Aug 22, 2014 at 5:53 AM


Visibility: 8 mi

Pressure: 30.04 "Hg

Humidity: 96%

Dew point: 68 °F

Location of AcworthLocation

Historic Weather in Acworth — Graph

°F

Acworth temperature yesterday

Maximum temperature yesterday: 92 °F (at 2:53 PM)
Minimum temperature yesterday: 67 °F (at 3:53 AM)
Average temperature yesterday: 77 °F

Past Weeks' High & Low Weather Summary

 TemperatureHumidityPressure
High95 °F (Aug 7, 3:53 PM)97% (Aug 8, 10:53 PM)30.14 "Hg (Aug 8, 10:53 PM)
Low58 °F (Aug 14, 6:53 AM)34% (Aug 7, 3:53 PM)29.81 "Hg (Aug 12, 5:53 PM)
Average75 °F78%29.98 "Hg
* Reported Aug 7 4:53 AM — Aug 22 4:53 AM, Acworth, Weather by CustomWeather, © 2014

Note: Actual official high and low records may vary slightly from our data, if they occured in-between our weather recording intervals... More about our weather records

Advertising

Acworth weather history for previous 24 hours

 ConditionsComfort  
Time TempWeatherWind HumidityBarometerVisibility
4:53 AM
Aug 22
70 °FFog.No wind93%30.04 "Hg6 mi
3:53 AM71 °FClear.No wind93%30.06 "Hg7 mi
2:53 AM71 °FClear.No wind93%30.06 "Hg8 mi
1:53 AM71 °FClear.No wind93%30.08 "Hg8 mi
12:53 AM72 °FClear.No wind93%30.09 "Hg7 mi
11:53 PM
Aug 21
74 °FClear.No wind94%30.09 "Hg10 mi
10:53 PM74 °FClear.No wind94%30.09 "Hg10 mi
9:53 PM74 °FClear.No wind94%30.08 "Hg10 mi
8:53 PM76 °FSunny.No wind91%30.07 "Hg10 mi
7:53 PM79 °FSunny.No wind88%30.07 "Hg10 mi
6:53 PM83 °FSunny.No wind72%30.06 "Hg10 mi
5:53 PM89 °FSunny.No wind45%30.05 "Hg10 mi
4:53 PM86 °FThundershowers. Sunny.7 mph48%30.08 "Hg10 mi
3:53 PM92 °FPassing clouds.3 mph47%30.07 "Hg10 mi
2:53 PM92 °FPassing clouds.7 mph51%30.10 "Hg10 mi
1:53 PM90 °FPassing clouds.N/A56%30.12 "Hg10 mi
12:53 PM88 °FSunny.No wind57%30.13 "Hg10 mi
11:53 AM84 °FSunny.7 mph63%30.14 "Hg10 mi
10:53 AM80 °FSunny.3 mph71%30.14 "Hg10 mi
9:53 AM76 °FSunny.No wind80%30.13 "Hg10 mi
8:53 AM71 °FPassing clouds.No wind90%30.13 "Hg10 mi
7:53 AM67 °FFog.No wind97%30.11 "Hg6 mi
6:53 AM67 °FFog.No wind97%30.10 "Hg1 mi
Weather by CustomWeather, © 2014

See weather overviewHow to use our weather pages